EW2804 Weather Reports


Display with metric or nautical units.
time (UTC)temp
F
wind
direction
speed
MPH
gust
MPH
rain 1hr
in
rain 24hr
in
rain mn
in
humidity
%
barometer
mb
20260508155052 65 0 0.0 2.0 0.00 0.14 0.14 84 1012.7
20260508154102 65 0 0.0 0.0 0.00 0.14 0.14 84 1012.7
20260508153027 65 120 0.0 0.0 0.04 0.14 0.14 83 1012.8
20260508152024 64 121 0.0 0.0 0.09 0.14 0.14 82 1012.9
20260508145908 65 120 0.0 3.0 0.00 0.05 0.05 78 1013.0
20260508144906 65 148 0.0 1.0 0.00 0.05 0.05 77 1013.0
20260508143927 66 166 1.0 5.0 0.00 0.05 0.05 76 1013.3
20260508142917 65 203 1.0 4.0 0.00 0.05 0.05 79 1013.2
20260508141855 64 128 0.0 2.0 0.00 0.05 0.05 81 1013.3
20260508140846 63 144 0.0 1.0 0.00 0.05 0.05 82 1013.7
20260508134727 63 0 0.0 3.0 0.00 0.05 0.05 86 1013.3
20260508133745 62 0 0.0 1.0 0.00 0.05 0.05 87 1013.3
20260508132747 62 116 0.0 1.0 0.00 0.05 0.05 88 1013.1
20260508130530 62 138 0.0 0.0 0.00 0.05 0.05 88 1013.3
20260508125544 61 138 0.0 0.0 0.00 0.05 0.05 88 1013.2
20260508123421 61 139 0.0 0.0 0.00 0.05 0.05 88 1013.3
20260508122410 60 138 0.0 1.0 0.00 0.05 0.05 87 1013.4
20260508115049 60 138 0.0 0.0 0.00 0.05 0.05 87 1013.6
20260508114019 60 138 0.0 0.0 0.00 0.05 0.05 86 1013.5
20260508113033 60 138 0.0 0.0 0.00 0.05 0.05 86 1013.4
20260508112020 60 138 0.0 1.0 0.00 0.05 0.05 86 1013.2
20260508110947 60 138 0.0 7.0 0.00 0.05 0.05 86 1013.3
20260508105927 60 138 0.0 3.0 0.00 0.05 0.05 86 1013.0
20260508104915 61 101 0.0 7.0 0.00 0.05 0.05 86 1012.8
20260508103843 61 173 0.0 1.0 0.00 0.05 0.05 86 1012.8
20260508095422 61 173 0.0 0.0 0.00 0.01 0.01 84 1013.2
20260508094356 61 173 0.0 0.0 0.00 0.01 0.01 84 1012.6
20260508092218 61 173 0.0 0.0 0.00 0.01 0.01 83 1012.5
20260508091232 61 173 0.0 0.0 0.00 0.01 0.01 83 1012.6
20260508090228 61 173 0.0 0.0 0.00 0.00 0.00 83 1012.8
20260508085208 61 173 0.0 0.0 0.00 0.00 0.00 83 1012.5
20260508084157 61 173 0.0 0.0 0.00 0.00 0.00 82 1012.8
20260508082105 61 259 0.0 3.0 0.00 0.00 0.00 81 1013.0
20260508081038 61 122 0.0 3.0 0.00 0.00 0.00 80 1013.2
20260508080039 61 237 0.0 3.0 0.00 0.00 0.00 79 1014.0
20260508075004 61 153 0.0 2.0 0.00 0.00 0.00 79 1013.7
20260508073948 61 260 0.0 0.0 0.00 0.00 0.00 80 1013.9
20260508072951 61 260 0.0 0.0 0.00 0.00 0.00 80 1014.0
20260508071917 61 260 0.0 0.0 0.00 0.00 0.00 81 1014.8
20260508070858 61 260 0.0 0.0 0.00 0.00 0.00 81 1014.5
20260508065904 60 261 0.0 0.0 0.00 0.00 0.00 81 1014.3
20260508064851 60 261 0.0 0.0 0.00 0.00 0.00 80 1014.1
20260508063821 60 261 0.0 0.0 0.00 0.00 0.00 81 1014.4
20260508062840 60 261 0.0 0.0 0.00 0.00 0.00 80 1014.6
20260508061856 60 261 0.0 0.0 0.00 0.00 0.00 79 1014.6
20260508060903 60 261 0.0 0.0 0.00 0.00 0.00 80 1014.8
20260508055838 60 261 0.0 0.0 0.00 0.00 0.00 80 1014.8
20260508054848 60 261 0.0 0.0 0.00 0.00 0.00 79 1014.6
20260508052708 60 261 0.0 0.0 0.00 0.00 0.00 78 1014.4
20260508051729 61 260 0.0 0.0 0.00 0.00 0.00 78 1014.5
20260508050746 61 260 0.0 0.0 0.00 0.00 0.00 78 1014.5
20260508045753 61 260 0.0 0.0 0.00 0.00 0.00 78 1014.6
20260508044811 61 260 0.0 0.0 0.00 0.00 0.00 78 1014.7
20260508043801 60 260 0.0 0.0 0.00 0.00 0.00 78 1014.7
20260508042821 60 260 0.0 0.0 0.00 0.00 0.00 78 1014.5
20260508041835 60 261 0.0 0.0 0.00 0.00 0.00 78 1014.5
20260508040857 60 261 0.0 0.0 0.00 0.00 0.00 77 1014.6
20260508034743 60 261 0.0 0.0 0.00 0.00 0.00 76 1014.5
20260508033750 61 261 0.0 0.0 0.00 0.00 0.00 75 1014.5
20260508032805 61 261 0.0 0.0 0.00 0.00 0.00 74 1014.5
20260508031748 61 261 0.0 0.0 0.00 0.00 0.00 72 1014.3
20260508030725 62 260 0.0 0.0 0.00 0.00 0.00 71 1014.3
20260508024529 63 260 0.0 0.0 0.00 0.00 0.00 69 1014.0
20260508023451 64 261 0.0 0.0 0.00 0.00 0.00 67 1013.9
20260508022424 65 261 0.0 0.0 0.00 0.00 0.00 65 1013.9
20260508021437 65 261 0.0 0.0 0.00 0.00 0.00 64 1013.7
20260508015310 66 261 0.0 0.0 0.00 0.00 0.00 62 1013.6
20260508014233 67 261 0.0 0.0 0.00 0.00 0.00 61 1013.4
20260508013203 67 261 0.0 0.0 0.00 0.00 0.00 60 1013.5
20260508012225 67 261 0.0 1.0 0.00 0.00 0.00 60 1013.5
20260508011213 68 261 0.0 3.0 0.00 0.00 0.00 59 1013.4
20260508010138 68 132 0.0 3.0 0.00 0.00 0.00 58 1013.6
20260508005121 69 119 0.0 2.0 0.00 0.00 0.00 58 1013.5
20260508004103 70 136 0.0 4.0 0.00 0.00 0.00 56 1013.1
20260508001853 71 40 0.0 0.0 0.00 0.00 0.00 58 1013.5
20260508000859 71 39 0.0 0.0 0.00 0.00 0.00 57 1013.5
20260507235843 72 39 0.0 0.0 0.00 0.00 0.00 53 1013.7
20260507234836 73 39 0.0 1.0 0.00 0.00 0.00 50 1013.6
20260507232726 73 38 0.0 2.0 0.00 0.00 0.00 45 1013.6
20260507231651 73 39 0.0 0.0 0.00 0.00 0.00 50 1013.7
20260507225504 73 39 0.0 1.0 0.00 0.00 0.00 45 1013.9
20260507224453 72 39 0.0 4.0 0.00 0.00 0.00 46 1014.0
20260507223511 72 51 0.0 3.0 0.00 0.00 0.00 48 1014.1
20260507222502 72 50 1.0 4.0 0.00 0.00 0.00 46 1014.2
20260507221433 72 30 1.0 4.0 0.00 0.00 0.00 49 1014.3
20260507220408 72 349 1.0 4.0 0.00 0.00 0.00 46 1014.3
20260507214223 72 38 0.0 0.0 0.00 0.00 0.00 46 1014.5
20260507213223 72 38 0.0 5.0 0.00 0.00 0.00 45 1014.6
20260507210008 73 276 1.0 5.0 0.00 0.00 0.00 47 1015.0
20260507205024 74 69 1.0 4.0 0.00 0.00 0.00 45 1014.9
20260507204019 73 331 1.0 4.0 0.00 0.00 0.00 45 1014.9
20260507203006 72 355 2.0 9.0 0.00 0.00 0.00 47 1015.2
20260507202018 72 15 2.0 9.0 0.00 0.00 0.00 46 1015.2
20260507201038 73 57 2.0 8.0 0.00 0.00 0.00 46 1015.4
20260507200005 72 40 1.0 10.0 0.00 0.00 0.00 45 1015.6
20260507195010 72 5 2.0 10.0 0.00 0.00 0.00 47 1015.7
20260507194020 72 47 3.0 9.0 0.00 0.00 0.00 45 1015.8
20260507192946 72 351 2.0 12.0 0.00 0.00 0.00 46 1015.8
20260507191929 72 355 3.0 12.0 0.00 0.00 0.00 50 1016.1
20260507190925 72 49 2.0 6.0 0.00 0.00 0.00 44 1016.4
20260507185852 71 36 2.0 14.0 0.00 0.00 0.00 45 1016.5
20260507184825 71 49 2.0 14.0 0.00 0.00 0.00 45 1016.4
20260507183749 71 48 2.0 11.0 0.00 0.00 0.00 46 1016.5
20260507182747 71 57 2.0 11.0 0.00 0.00 0.00 44 1016.6
20260507181711 71 344 2.0 7.0 0.00 0.00 0.00 51 1016.8
20260507180640 70 49 2.0 9.0 0.00 0.00 0.00 51 1017.0
20260507175653 69 46 2.0 9.0 0.00 0.00 0.00 51 1017.2
20260507174624 68 36 3.0 9.0 0.00 0.00 0.00 49 1017.5
20260507172454 68 9 2.0 6.0 0.00 0.00 0.00 53 1018.1
20260507171505 68 55 1.0 6.0 0.00 0.00 0.00 50 1018.3
20260507170512 68 32 1.0 6.0 0.00 0.00 0.00 55 1018.5
20260507165500 67 80 1.0 8.0 0.00 0.00 0.00 55 1018.6
20260507164519 67 42 2.0 8.0 0.00 0.00 0.00 52 1018.8
20260507163538 67 52 2.0 7.0 0.00 0.00 0.00 56 1018.8
20260507162519 66 91 1.0 6.0 0.00 0.00 0.00 55 1018.9
20260507160410 65 345 1.0 7.0 0.00 0.00 0.00 59 1019.0